Location: Heiligenberg
(48.5381°N, 7.3897°E)
Time: 21:36:24
(UTC+00:00)

USA 308 - Pass Details

Date: 26 May 2022
Orbit: 549 x 558 km, 54.0° (Epoch: 14 June)

Event Time Altitude Azimuth Distance (km) Brightness Sun altitude
Exits shadow 02:16:37 - 266° (W) 2,145 5.4 -10.8°
Reaches altitude 10° 02:17:24 10° 268° (W) 1,844 5.1 -10.7°
Maximum altitude 02:21:29 49° 344° (NNW) 728 3.7 -10.3°
Drops below altitude 10° 02:25:40 10° 61° (ENE) 1,884 6.9 -9.8°
Sets 02:27:54 0° 66° (ENE) 2,752 7.7 -9.6°
